Dewpoint
69 69 70 69 69 67 68 67 67 68 69 68 68 66 67 67 58 60 61 61 63 65 65 66 67 68 69 68 68 67 68 68 69
68 69 69 68 68 68 68 67 66 68 69 68 67 66 66 56 55 58 60 62 63 64 64 65 66 68 68 68 67 67 67 67 69
68 68 68 68 67 68 67 65 64 67 68 67 66 66 66 57 57 59 61 65 63 64 64 65 65 66 68 68 67 67 68 69 69
67 67 68 67 66 67 68 66 65 65 67 67 66 65 66 58 58 59 59 66 64 64 64 65 65 65 65 67 67 67 67 68 69
68 67 67 68 68 67 67 66 66 65 64 65 65 65 65 56 61 60 61 63 64 64 64 64 64 65 65 65 66 67 67 68 68
62 60 64 68 68 68 66 66 66 66 64 64 64 64 54 55 61 62 66 66 63 64 65 64 64 63 64 65 66 67 66 67 67
58 57 60 63 65 68 67 65 65 64 59 60 62 59 54 55 64 63 67 65 64 65 65 64 64 64 63 64 64 66 66 66 66
54 54 54 57 58 61 63 62 60 59 61 60 57 55 55 56 61 65 67 66 65 65 65 65 64 64 64 63 64 64 65 66 66
51 50 52 51 52 55 59 62 62 60 60 61 59 56 56 56 58 63 66 66 65 64 65 64 64 64 64 63 63 64 63 64 65
51 50 51 49 50 51 53 55 56 58 58 63 62 58 58 59 60 62 63 66 66 64 64 64 64 64 64 64 63 63 63 63 63
49 49 49 47 48 51 51 53 54 56 54 56 57 58 59 59 60 61 62 63 64 64 66 65 65 65 64 64 63 63 63 63 63
49 48 48 46 45 47 51 51 55 55 54 52 50 50 50 53 55 58 60 61 62 63 64 65 65 65 66 65 64 63 63 62 62
48 47 47 47 46 46 46 46 53 54 52 51 51 50 48 44 45 51 53 56 58 62 63 64 64 64 64 64 65 64 63 63 62
47 47 47 47 47 47 44 45 46 49 51 51 51 46 47 43 41 42 46 52 55 58 62 62 63 66 66 65 64 64 65 63 63
45 45 45 46 47 47 47 46 45 45 46 45 44 47 47 47 44 43 46 47 48 52 61 62 59 61 63 64 65 65 64 65 64
43 44 44 44 44 44 44 46 46 46 45 44 43 45 42 40 42 40 39 40 45 52 54 57 58 55 57 59 63 65 64 65 65
42 42 42 42 43 42 42 43 44 44 44 45 45 44 46 44 37 36 38 39 44 45 48 49 50 51 53 53 56 61 64 64 64
40 40 41 41 42 41 41 41 42 42 42 44 46 42 43 45 44 39 37 37 40 41 43 44 45 46 46 47 49 54 58 60 60
38 38 39 40 40 40 41 41 41 42 41 42 43 43 43 43 42 43 42 39 36 37 39 40 40 41 42 44 46 48 52 55 56
33 35 37 38 39 39 39 40 40 41 41 40 41 41 42 41 41 41 41 42 42 41 37 37 38 35 34 36 41 43 46 49 51
Lifted_Index
1 1 1 1 2 2 2 3 3 2 2 2 3 4 5 6 6 6 6 6 6 6 6 5 5 4 3 3 4 4 3 2 2
1 1 1 1 2 2 2 3 3 3 2 3 4 5 5 6 6 6 6 6 6 6 6 6 5 4 4 3 4 4 3 2 2
1 1 1 2 2 2 2 3 4 3 3 3 4 5 6 6 6 6 6 6 6 6 6 6 6 5 4 4 4 4 4 3 2
0 0 1 1 2 2 2 3 4 4 4 4 5 5 6 5 5 6 6 6 6 6 6 6 6 6 5 5 4 4 4 3 2
1 1 1 1 1 2 2 3 3 4 4 5 5 6 6 5 5 5 5 5 5 5 6 6 6 6 6 5 5 5 4 4 3
2 2 1 1 1 1 2 2 3 4 5 5 6 6 6 5 4 4 4 4 5 5 5 6 6 6 6 6 5 5 5 4 4
2 2 2 2 2 1 2 3 3 3 4 5 5 5 5 5 4 3 3 4 4 4 5 5 5 6 6 6 6 5 5 5 5
2 2 2 3 3 2 2 3 3 3 3 3 4 4 4 4 3 3 3 3 3 3 4 4 5 5 6 6 6 6 5 5 5
2 2 3 3 3 3 3 3 2 3 2 2 3 3 4 4 3 3 3 2 2 3 3 4 4 5 5 6 6 6 6 6 5
3 3 3 3 3 3 3 3 3 3 3 2 2 3 3 3 3 3 3 2 2 2 3 3 3 4 4 5 5 6 6 6 6
4 4 4 3 3 3 3 3 3 3 3 3 3 3 3 3 3 3 3 3 3 3 2 2 2 3 3 4 4 5 6 6 6
5 5 5 4 4 4 4 3 3 3 3 3 3 3 3 3 3 3 3 3 3 3 3 2 2 3 3 3 3 4 5 5 5
6 6 5 5 5 4 4 3 3 3 3 3 2 2 2 3 3 3 3 3 3 3 3 3 3 3 2 2 2 3 3 4 4
6 6 6 6 5 5 4 4 3 3 3 3 2 2 2 2 2 3 3 3 3 3 3 3 3 3 3 2 2 2 2 3 3
6 6 6 6 5 5 4 4 4 3 3 3 3 3 2 2 2 2 2 2 2 3 3 3 3 3 3 3 3 2 2 2 2
6 6 6 6 6 5 5 5 5 4 4 3 3 3 3 3 2 2 2 2 2 2 2 3 3 3 3 4 3 3 2 2 2
5 6 6 7 7 6 6 5 5 5 5 4 4 4 3 3 3 3 3 2 2 2 2 3 3 3 3 4 4 4 3 3 3
6 6 6 6 7 7 6 5 5 5 6 6 5 5 4 4 4 4 3 3 3 3 3 3 3 3 3 4 4 5 5 4 4
7 7 7 6 6 6 6 5 5 5 6 6 6 6 6 5 5 4 4 5 5 5 5 4 4 4 4 4 5 5 6 6 6
8 8 7 7 6 6 5 5 5 5 5 6 6 6 7 6 6 5 5 6 7 7 6 6 5 5 5 5 6 6 6 6 7